DW4776 Weather Reports


time (UTC)temp
C
wind
direction
speed
KPH
gust
KPH
rain 1hr
cm
rain 24hr
cm
rain mn
cm
humidity
%
barometer
mb
20260904010049 20 289 19.3 29.0 0.00 0.00 0.00 35 1009.7
20260904004549 20 265 17.7 27.4 0.00 0.05 0.00 34 1009.6
20260904003045 20 289 19.3 33.8 0.00 0.05 0.00 33 1009.5
20260904001540 21 277 22.5 33.8 0.00 0.05 0.00 34 1009.5
20260904000044 21 281 24.1 35.4 0.00 0.05 0.00 33 1009.2
20260903234546 21 265 22.5 38.6 0.00 0.23 0.00 33 1009.0
20260903233051 22 303 27.4 38.6 0.00 0.23 0.00 32 1009.0
20260903231551 22 268 16.1 40.2 0.00 0.23 0.00 33 1009.1
20260903230048 22 279 27.4 38.6 0.00 0.23 0.00 33 1009.0
20260903224602 22 262 22.5 41.8 0.00 0.23 0.00 33 1008.8
20260903223045 22 265 22.5 41.8 0.00 0.23 0.00 34 1008.5
20260903221544 22 294 19.3 37.0 0.00 0.23 0.00 33 1008.3
20260903220047 22 269 22.5 33.8 0.00 0.23 0.00 34 1008.2
20260903214604 22 231 14.5 29.0 0.00 0.23 0.00 33 1008.2
20260903213058 22 225 19.3 33.8 0.00 0.23 0.00 32 1008.1
20260903211545 21 255 14.5 22.5 0.00 0.23 0.00 34 1008.1
20260903210059 22 258 14.5 30.6 0.00 0.23 0.00 33 1008.2
20260903204548 22 241 14.5 29.0 0.00 0.23 0.00 33 1008.2
20260903203105 21 241 16.1 24.1 0.00 0.23 0.00 35 1008.3
20260903201546 21 216 16.1 25.7 0.00 0.23 0.00 34 1008.3
20260903200051 21 258 19.3 30.6 0.00 0.23 0.00 35 1008.3
20260903194543 21 259 17.7 33.8 0.00 0.23 0.00 35 1008.1
20260903193046 21 239 17.7 35.4 0.00 0.23 0.00 34 1008.2
20260903191542 21 258 20.9 40.2 0.00 0.23 0.00 34 1008.3
20260903190045 20 226 24.1 38.6 0.00 0.23 0.00 36 1008.2
20260903184546 20 267 17.7 33.8 0.00 0.23 0.00 39 1008.1
20260903183049 20 256 16.1 37.0 0.00 0.23 0.00 36 1007.9
20260903181541 20 204 16.1 33.8 0.00 0.23 0.00 40 1008.0
20260903180044 20 240 14.5 33.8 0.00 0.23 0.00 42 1008.1
20260903174550 19 210 17.7 35.4 0.00 0.23 0.00 43 1008.3
20260903173048 18 243 14.5 32.2 0.00 0.23 0.00 50 1008.5
20260903171547 16 200 6.4 14.5 0.00 0.23 0.00 59 1008.6
20260903170045 15 225 11.3 19.3 0.00 0.23 0.00 62 1008.6
20260903164546 13 256 8.0 12.9 0.00 0.23 0.00 70 1008.6
20260903163046 12 237 6.4 12.9 0.00 0.23 0.00 70 1008.6
20260903161545 12 215 8.0 14.5 0.00 0.23 0.00 70 1008.8
20260903160045 12 212 8.0 12.9 0.00 0.23 0.00 69 1008.7
20260903154603 11 223 9.7 14.5 0.00 0.23 0.00 72 1008.6
20260903153050 11 195 11.3 16.1 0.00 0.23 0.00 74 1008.4
20260903151541 11 210 8.0 14.5 0.00 0.23 0.00 77 1008.5
20260903150042 10 231 6.4 9.7 0.00 0.23 0.00 80 1008.6
20260903144545 10 247 4.8 9.7 0.00 0.23 0.00 82 1008.6
20260903143101 8 214 3.2 9.7 0.00 0.23 0.00 84 1008.3
20260903141558 8 227 8.0 11.3 0.00 0.23 0.00 85 1008.1
20260903140046 7 203 9.7 12.9 0.00 0.23 0.00 84 1007.9
20260903134552 7 214 6.4 9.7 0.00 0.23 0.00 84 1007.9
20260903133046 6 214 3.2 8.0 0.00 0.23 0.00 85 1007.9
20260903131547 6 214 3.2 6.4 0.00 0.23 0.00 86 1007.6
20260903130044 6 0 1.6 8.0 0.00 0.23 0.00 85 1007.3
20260903124546 6 0 0.0 6.4 0.00 0.23 0.00 83 1007.2
20260903123043 6 216 4.8 11.3 0.00 0.23 0.00 83 1007.0
20260903121541 6 264 6.4 9.7 0.00 0.23 0.00 85 1006.9
20260903120048 6 263 4.8 9.7 0.00 0.23 0.00 85 1007.0
20260903114547 6 258 4.8 8.0 0.00 0.23 0.00 85 1007.0
20260903113045 6 268 3.2 6.4 0.00 0.23 0.00 84 1007.1
20260903111544 6 277 6.4 8.0 0.00 0.23 0.00 85 1007.1
20260903110048 7 277 6.4 11.3 0.00 0.23 0.00 81 1007.2
20260903104548 7 171 4.8 11.3 0.00 0.23 0.00 80 1007.3
20260903103050 7 171 4.8 12.9 0.00 0.23 0.00 80 1007.3
20260903101543 7 0 1.6 4.8 0.00 0.23 0.00 81 1007.2
20260903100045 8 297 0.0 6.4 0.00 0.23 0.00 81 1007.2
20260903094545 8 0 0.0 1.6 0.00 0.23 0.00 81 1007.1
20260903093100 8 0 0.0 8.0 0.00 0.23 0.00 81 1007.1
20260903091540 8 297 6.4 11.3 0.00 0.23 0.00 80 1007.1
20260903090051 8 297 3.2 8.0 0.00 0.23 0.00 80 1007.2
20260903084543 9 204 3.2 9.7 0.00 0.23 0.00 79 1007.0
20260903083044 9 228 8.0 12.9 0.00 0.23 0.00 78 1006.8
20260903081547 10 223 4.8 9.7 0.00 0.23 0.00 78 1006.9
20260903080043 10 166 4.8 8.0 0.00 0.23 0.00 79 1006.9
20260903074543 10 166 1.6 12.9 0.00 0.23 0.00 79 1006.5
20260903073046 10 166 3.2 12.9 0.00 0.23 0.00 79 1006.4
20260903071545 11 208 0.0 9.7 0.00 0.23 0.00 78 1006.6
20260903070045 11 261 8.0 12.9 0.00 0.23 0.00 75 1006.4
20260903064542 11 210 8.0 14.5 0.00 0.23 0.00 76 1006.5
20260903063109 10 176 4.8 11.3 0.00 0.23 0.00 79 1006.8
20260903061543 10 203 3.2 8.0 0.00 0.23 0.00 80 1006.8
20260903060049 11 217 1.6 8.0 0.00 0.23 0.00 79 1006.7
20260903054545 11 224 6.4 14.5 0.00 0.23 0.23 78 1006.7
20260903053044 11 193 9.7 16.1 0.00 0.23 0.23 77 1006.8
20260903051548 11 206 9.7 22.5 0.00 0.23 0.23 74 1006.8
20260903050107 12 204 14.5 29.0 0.00 0.23 0.23 71 1006.9
20260903044543 12 240 29.0 46.7 0.00 0.23 0.23 68 1007.1
20260903043044 12 223 19.3 37.0 0.00 0.23 0.23 71 1007.2
20260903041552 10 219 16.1 33.8 0.00 0.23 0.23 78 1007.2
20260903040054 10 214 8.0 16.1 0.00 0.23 0.23 77 1007.1
20260903034544 11 209 11.3 19.3 0.00 0.23 0.23 77 1007.1
20260903033051 11 223 11.3 19.3 0.00 0.23 0.23 77 1007.0
20260903031545 11 197 6.4 11.3 0.00 0.23 0.23 78 1007.1
20260903030048 12 227 9.7 20.9 0.00 0.23 0.23 75 1006.8
20260903024541 12 252 12.9 32.2 0.00 0.23 0.23 73 1006.7
20260903023051 12 245 17.7 45.1 0.00 0.23 0.23 72 1006.8
20260903021548 13 220 30.6 45.1 0.00 0.23 0.23 78 1007.3
20260903020049 13 210 14.5 22.5 0.00 0.23 0.23 80 1006.5
20260903014550 14 183 12.9 22.5 0.00 0.23 0.23 80 1006.7
20260903013050 14 168 12.9 17.7 0.03 0.23 0.23 77 1006.8
20260903011559 15 106 6.4 12.9 0.03 0.23 0.23 79 1006.6